Weather in Megrozero

Russia / Republic of Karelia     61°01′53″N   33°29′16″E
temp.,
°C
wind,
m/s
gust,
m/s
humid.,
%
clouds,
%
prec.,
mm/h
press.,
hPa
HPBL,
m
1 august, sun
sun100:00+14wsw210891 0.0 1001287
03:00+12ssw25971 0.0 1002102
06:00+14ssw279115 0.0 1003225
09:00+19sw3669100 0.0 1003789
12:00+21sw5757100 0.1 10031438
15:00+16sw269492 4.6 1002418
18:00+17sw258978 3.6 1001354
21:00+15s229286 4.4 100129
2 august, mon
mon200:00+14s279822 0.2 1002181
03:00+14sw399970 0.2 1003364
06:00+15sw4997100 0.0 1004578
09:00+17sw4787100 0.1 1005688
12:00+20sw4757100 0.2 10051343
15:00+21sw3558100 0.4 10041293
18:00+18s2590100 1.8 1003341
21:00+15s1299100 3.2 100256
3 august, tue
tue300:00+14n2599100 5.4 999248
03:00+15n3899100 17.8 998425
06:00+14wnw4899100 0.6 998451
09:00+15w379396 1.1 999496
12:00+19w585663 0.1 10001236
15:00+20wsw585414 0.1 10011520
18:00+18wsw58610 0.0 10031074
21:00+14wsw4108611 0.1 1004416
4 august, wed
wed400:00+12w3108617 0.0 1006522
03:00+11w411780 0.0 1008580
06:00+11w311775 0.0 1011564
09:00+15w58555 0.0 10121182
12:00+19w574020 0.0 10132254
15:00+18wsw554463 0.0 10151321
18:00+18wnw33438 0.0 10161314
21:00+12w11695 0.0 101710
5 august, thu
thu500:00+10e227610 0.0 101814
03:00+10ese237695 0.0 101884
06:00+12ese2668100 0.0 1018144
09:00+13se2662100 0.0 1018190
12:00+19s244534 0.0 1017967
15:00+22wsw333873 0.0 10162126
18:00+21wnw22438 0.0 1016960
21:00+14ene227566 0.0 101634